Time,TemperatureF,DewpointF,PressureIn,WindDirection,WindDirectionDegrees,WindSpeedMPH,WindSpeedGustMPH,Humidity,HourlyPrecipIn,Conditions,Clouds,dailyrainin,SoftwareType,DateUTC
2013-05-27 00:02:00,81.5,77.9,30.00,North,-999,0.0,0.0,89,0.00,,,-99.99,FreeWX 2.03,2013-05-27 05:02:00,
2013-05-27 00:07:00,81.5,77.9,30.00,North,-999,0.0,0.0,89,0.00,,,-99.99,FreeWX 2.03,2013-05-27 05:07:00,
2013-05-27 00:12:00,81.7,78.4,30.00,North,-999,0.0,0.0,90,0.00,,,-99.99,FreeWX 2.03,2013-05-27 05:12:00,
2013-05-27 00:17:00,81.9,78.6,30.00,North,-999,0.0,0.0,90,0.00,,,-99.99,FreeWX 2.03,2013-05-27 05:17:00,
2013-05-27 00:22:00,81.7,78.1,30.00,North,-999,0.0,0.0,89,0.00,,,-99.99,FreeWX 2.03,2013-05-27 05:22:00,
2013-05-27 00:27:00,81.5,77.9,29.97,North,-999,0.0,0.0,89,0.00,,,-99.99,FreeWX 2.03,2013-05-27 05:27:00,
2013-05-27 00:32:00,81.3,77.7,29.97,North,-999,0.0,0.0,89,0.00,,,-99.99,FreeWX 2.03,2013-05-27 05:32:00,
2013-05-27 00:37:00,81.3,78.1,29.97,North,-999,0.0,0.0,90,0.00,,,-99.99,FreeWX 2.03,2013-05-27 05:37:00,
2013-05-27 00:42:00,81.7,78.4,29.97,North,-999,0.0,0.0,90,0.00,,,-99.99,FreeWX 2.03,2013-05-27 05:42:00,
2013-05-27 00:47:00,81.7,78.4,29.97,North,-999,0.0,0.0,90,0.00,,,-99.99,FreeWX 2.03,2013-05-27 05:47:00,
2013-05-27 00:52:00,81.5,77.9,29.97,North,-999,0.0,0.0,89,0.00,,,-99.99,FreeWX 2.03,2013-05-27 05:52:00,
2013-05-27 00:57:00,81.3,77.7,29.97,North,-999,0.0,0.0,89,0.00,,,-99.99,FreeWX 2.03,2013-05-27 05:57:00,
2013-05-27 01:02:00,81.1,77.9,29.97,North,-999,0.0,0.0,90,0.00,,,-99.99,FreeWX 2.03,2013-05-27 06:02:00,
2013-05-27 01:07:00,81.1,77.9,29.97,North,-999,0.0,0.0,90,0.00,,,-99.99,FreeWX 2.03,2013-05-27 06:07:00,
2013-05-27 01:12:00,81.5,78.3,29.97,North,-999,0.0,0.0,90,0.00,,,-99.99,FreeWX 2.03,2013-05-27 06:12:00,
2013-05-27 01:17:00,81.7,78.4,29.97,North,-999,0.0,0.0,90,0.00,,,-99.99,FreeWX 2.03,2013-05-27 06:17:00,
2013-05-27 01:22:00,81.5,78.3,29.97,North,-999,0.0,0.0,90,0.00,,,-99.99,FreeWX 2.03,2013-05-27 06:22:00,
2013-05-27 01:27:00,81.3,78.1,29.97,North,-999,0.0,0.0,90,0.00,,,-99.99,FreeWX 2.03,2013-05-27 06:27:00,
2013-05-27 01:32:00,81.1,77.9,29.97,North,-999,0.0,0.0,90,0.00,,,-99.99,FreeWX 2.03,2013-05-27 06:32:00,
2013-05-27 01:37:00,81.1,77.9,29.97,North,-999,0.0,0.0,90,0.00,,,-99.99,FreeWX 2.03,2013-05-27 06:37:00,
2013-05-27 01:42:00,81.3,78.1,29.97,North,-999,0.0,0.0,90,0.00,,,-99.99,FreeWX 2.03,2013-05-27 06:42:00,
2013-05-27 01:47:00,81.5,78.3,29.97,North,-999,0.0,0.0,90,0.00,,,-99.99,FreeWX 2.03,2013-05-27 06:47:00,
2013-05-27 01:52:00,81.3,78.1,29.97,North,-999,0.0,0.0,90,0.00,,,-99.99,FreeWX 2.03,2013-05-27 06:52:00,
2013-05-27 01:57:00,81.1,77.9,29.97,North,-999,0.0,0.0,90,0.00,,,-99.99,FreeWX 2.03,2013-05-27 06:57:00,
2013-05-27 02:02:00,81.3,78.1,29.97,North,-999,0.0,0.0,90,0.00,,,-99.99,FreeWX 2.03,2013-05-27 07:02:00,
2013-05-27 02:07:00,81.5,78.6,29.97,North,-999,0.0,0.0,91,0.00,,,-99.99,FreeWX 2.03,2013-05-27 07:07:00,
2013-05-27 02:12:00,81.7,78.8,29.97,North,-999,0.0,0.0,91,0.00,,,-99.99,FreeWX 2.03,2013-05-27 07:12:00,
2013-05-27 02:17:00,81.7,78.4,29.97,North,-999,0.0,0.0,90,0.00,,,-99.99,FreeWX 2.03,2013-05-27 07:17:00,
2013-05-27 02:22:00,81.5,78.6,29.97,North,-999,0.0,0.0,91,0.00,,,-99.99,FreeWX 2.03,2013-05-27 07:22:00,
2013-05-27 02:27:00,81.3,78.4,29.97,North,-999,0.0,0.0,91,0.00,,,-99.99,FreeWX 2.03,2013-05-27 07:27:00,
2013-05-27 02:32:00,81.1,78.3,29.97,North,-999,0.0,0.0,91,0.00,,,-99.99,FreeWX 2.03,2013-05-27 07:32:00,
2013-05-27 02:37:00,81.1,78.6,29.97,North,-999,0.0,0.0,92,0.00,,,-99.99,FreeWX 2.03,2013-05-27 07:37:00,
2013-05-27 02:42:00,81.5,79.0,29.94,North,-999,0.0,0.0,92,0.00,,,-99.99,FreeWX 2.03,2013-05-27 07:42:00,
2013-05-27 02:47:00,81.5,79.0,29.94,North,-999,0.0,0.0,92,0.00,,,-99.99,FreeWX 2.03,2013-05-27 07:47:00,
2013-05-27 02:52:00,81.5,79.0,29.94,North,-999,0.0,0.0,92,0.00,,,-99.99,FreeWX 2.03,2013-05-27 07:52:00,
2013-05-27 02:57:00,81.3,78.8,29.94,North,-999,0.0,0.0,92,0.00,,,-99.99,FreeWX 2.03,2013-05-27 07:57:00,
2013-05-27 03:02:00,81.1,78.6,29.94,North,-999,0.0,0.0,92,0.00,,,-99.99,FreeWX 2.03,2013-05-27 08:02:00,
2013-05-27 03:07:00,81.1,79.0,29.94,North,-999,0.0,0.0,93,0.00,,,-99.99,FreeWX 2.03,2013-05-27 08:07:00,
2013-05-27 03:12:00,81.3,79.2,29.94,North,-999,0.0,0.0,93,0.00,,,-99.99,FreeWX 2.03,2013-05-27 08:12:00,
2013-05-27 03:17:00,81.5,79.3,29.94,North,-999,0.0,0.0,93,0.00,,,-99.99,FreeWX 2.03,2013-05-27 08:17:00,
2013-05-27 03:22:00,81.3,79.2,29.94,North,-999,0.0,0.0,93,0.00,,,-99.99,FreeWX 2.03,2013-05-27 08:22:00,
2013-05-27 03:27:00,81.1,79.0,29.94,North,-999,0.0,0.0,93,0.00,,,-99.99,FreeWX 2.03,2013-05-27 08:27:00,
2013-05-27 03:32:00,81.1,79.0,29.94,North,-999,0.0,0.0,93,0.00,,,-99.99,FreeWX 2.03,2013-05-27 08:32:00,
2013-05-27 03:37:00,81.1,79.2,29.94,North,-999,0.0,0.0,94,0.00,,,-99.99,FreeWX 2.03,2013-05-27 08:37:00,
2013-05-27 03:42:00,81.3,79.3,29.94,North,-999,0.0,0.0,94,0.00,,,-99.99,FreeWX 2.03,2013-05-27 08:42:00,
2013-05-27 03:47:00,81.3,79.3,29.94,North,-999,0.0,0.0,94,0.00,,,-99.99,FreeWX 2.03,2013-05-27 08:47:00,
2013-05-27 03:52:00,81.3,79.3,29.94,North,-999,0.0,0.0,94,0.00,,,-99.99,FreeWX 2.03,2013-05-27 08:52:00,
2013-05-27 03:57:00,81.1,79.2,29.94,North,-999,0.0,0.0,94,0.00,,,-99.99,FreeWX 2.03,2013-05-27 08:57:00,
2013-05-27 04:02:00,81.0,79.0,29.94,North,-999,0.0,0.0,94,0.00,,,-99.99,FreeWX 2.03,2013-05-27 09:02:00,
2013-05-27 04:07:00,81.0,79.0,29.94,North,-999,0.0,0.0,94,0.00,,,-99.99,FreeWX 2.03,2013-05-27 09:07:00,
2013-05-27 04:12:00,81.3,79.7,29.94,North,-999,0.0,0.0,95,0.00,,,-99.99,FreeWX 2.03,2013-05-27 09:12:00,
2013-05-27 04:17:00,81.1,79.2,29.94,North,-999,0.0,0.0,94,0.00,,,-99.99,FreeWX 2.03,2013-05-27 09:17:00,
2013-05-27 04:22:00,81.1,79.2,29.94,North,-999,0.0,0.0,94,0.00,,,-99.99,FreeWX 2.03,2013-05-27 09:22:00,
2013-05-27 04:27:00,81.0,79.0,29.94,North,-999,0.0,0.0,94,0.00,,,-99.99,FreeWX 2.03,2013-05-27 09:27:00,
2013-05-27 04:32:00,80.8,78.8,29.94,North,-999,0.0,0.0,94,0.00,,,-99.99,FreeWX 2.03,2013-05-27 09:32:00,
2013-05-27 04:37:00,81.0,79.3,29.94,North,-999,0.0,0.0,95,0.00,,,-99.99,FreeWX 2.03,2013-05-27 09:37:00,
2013-05-27 04:42:00,81.1,79.5,29.94,North,-999,0.0,0.0,95,0.00,,,-99.99,FreeWX 2.03,2013-05-27 09:42:00,
2013-05-27 04:48:00,81.1,79.5,29.94,North,-999,0.0,0.0,95,0.00,,,-99.99,FreeWX 2.03,2013-05-27 09:48:00,
2013-05-27 04:53:00,81.1,79.5,29.94,North,-999,0.0,0.0,95,0.00,,,-99.99,FreeWX 2.03,2013-05-27 09:53:00,
2013-05-27 04:58:00,81.0,79.3,29.94,North,-999,0.0,0.0,95,0.00,,,-99.99,FreeWX 2.03,2013-05-27 09:58:00,
2013-05-27 05:03:00,81.0,79.3,29.94,North,-999,0.0,0.0,95,0.00,,,-99.99,FreeWX 2.03,2013-05-27 10:03:00,
2013-05-27 05:08:00,81.0,79.7,29.94,North,-999,0.0,0.0,96,0.00,,,-99.99,FreeWX 2.03,2013-05-27 10:08:00,
2013-05-27 05:13:00,81.1,79.9,29.94,North,-999,0.0,0.0,96,0.00,,,-99.99,FreeWX 2.03,2013-05-27 10:13:00,
2013-05-27 05:18:00,81.1,79.9,29.94,North,-999,0.0,0.0,96,0.00,,,-99.99,FreeWX 2.03,2013-05-27 10:18:00,
2013-05-27 05:23:00,81.0,79.7,29.94,North,-999,0.0,0.0,96,0.00,,,-99.99,FreeWX 2.03,2013-05-27 10:23:00,
2013-05-27 05:28:00,80.8,79.5,29.94,North,-999,0.0,0.0,96,0.00,,,-99.99,FreeWX 2.03,2013-05-27 10:28:00,
2013-05-27 05:33:00,80.8,79.5,29.94,North,-999,0.0,0.0,96,0.00,,,-99.99,FreeWX 2.03,2013-05-27 10:33:00,
2013-05-27 05:38:00,81.0,79.7,29.94,North,-999,0.0,0.0,96,0.00,,,-99.99,FreeWX 2.03,2013-05-27 10:38:00,
2013-05-27 05:43:00,81.0,79.7,29.94,North,-999,0.0,0.0,96,0.00,,,-99.99,FreeWX 2.03,2013-05-27 10:43:00,
2013-05-27 05:48:00,81.0,79.7,29.94,North,-999,0.0,0.0,96,0.00,,,-99.99,FreeWX 2.03,2013-05-27 10:48:00,
2013-05-27 05:53:00,81.0,79.7,29.94,North,-999,0.0,0.0,96,0.00,,,-99.99,FreeWX 2.03,2013-05-27 10:53:00,
2013-05-27 05:58:00,80.8,79.5,29.94,North,-999,0.0,0.0,96,0.00,,,-99.99,FreeWX 2.03,2013-05-27 10:58:00,
2013-05-27 06:03:00,80.8,79.5,29.94,North,-999,0.0,0.0,96,0.00,,,-99.99,FreeWX 2.03,2013-05-27 11:03:00,
2013-05-27 06:08:00,80.8,79.9,29.94,North,-999,0.0,0.0,97,0.00,,,-99.99,FreeWX 2.03,2013-05-27 11:08:00,
2013-05-27 06:13:00,81.0,80.1,29.94,North,-999,0.0,0.0,97,0.00,,,-99.99,FreeWX 2.03,2013-05-27 11:13:00,
2013-05-27 06:18:00,81.0,80.1,29.94,North,-999,0.0,0.0,97,0.00,,,-99.99,FreeWX 2.03,2013-05-27 11:18:00,
2013-05-27 06:23:00,81.1,80.2,29.94,North,-999,0.0,0.0,97,0.00,,,-99.99,FreeWX 2.03,2013-05-27 11:23:00,
2013-05-27 06:28:00,81.0,80.1,29.94,North,-999,0.0,0.0,97,0.00,,,-99.99,FreeWX 2.03,2013-05-27 11:28:00,
2013-05-27 06:33:00,81.0,80.1,29.94,North,-999,0.0,0.0,97,0.00,,,-99.99,FreeWX 2.03,2013-05-27 11:33:00,
2013-05-27 06:38:00,81.0,80.1,29.94,North,-999,0.0,0.0,97,0.00,,,-99.99,FreeWX 2.03,2013-05-27 11:38:00,
2013-05-27 06:43:00,80.8,79.9,29.94,North,-999,0.0,0.0,97,0.00,,,-99.99,FreeWX 2.03,2013-05-27 11:43:00,
2013-05-27 06:48:00,80.8,79.9,29.94,North,-999,0.0,0.0,97,0.00,,,-99.99,FreeWX 2.03,2013-05-27 11:48:00,
2013-05-27 06:53:00,80.8,79.9,29.94,North,-999,0.0,0.0,97,0.00,,,-99.99,FreeWX 2.03,2013-05-27 11:53:00,
2013-05-27 06:58:00,81.0,80.1,29.94,North,-999,0.0,0.0,97,0.00,,,-99.99,FreeWX 2.03,2013-05-27 11:58:00,
2013-05-27 07:03:00,81.1,80.2,29.94,North,-999,0.0,0.0,97,0.00,,,-99.99,FreeWX 2.03,2013-05-27 12:03:00,
2013-05-27 07:08:00,81.1,80.2,29.94,North,-999,0.0,0.0,97,0.00,,,-99.99,FreeWX 2.03,2013-05-27 12:08:00,
2013-05-27 07:13:00,81.1,80.2,29.94,North,-999,0.0,0.0,97,0.00,,,-99.99,FreeWX 2.03,2013-05-27 12:13:00,
2013-05-27 07:18:00,81.1,80.2,29.94,North,-999,0.0,0.0,97,0.00,,,-99.99,FreeWX 2.03,2013-05-27 12:18:00,
2013-05-27 07:23:00,81.3,80.4,29.94,North,-999,0.0,0.0,97,0.00,,,-99.99,FreeWX 2.03,2013-05-27 12:23:00,
2013-05-27 07:28:00,81.3,80.1,29.94,North,-999,0.0,0.0,96,0.00,,,-99.99,FreeWX 2.03,2013-05-27 12:28:00,
2013-05-27 07:33:00,81.3,80.1,29.94,North,-999,0.0,0.0,96,0.00,,,-99.99,FreeWX 2.03,2013-05-27 12:33:00,
2013-05-27 07:38:00,81.5,80.2,29.94,North,-999,0.0,0.0,96,0.00,,,-99.99,FreeWX 2.03,2013-05-27 12:38:00,
2013-05-27 07:43:00,81.3,80.1,29.94,North,-999,0.0,0.0,96,0.00,,,-99.99,FreeWX 2.03,2013-05-27 12:43:00,
2013-05-27 07:48:00,81.7,80.4,29.94,North,-999,0.0,0.0,96,0.00,,,-99.99,FreeWX 2.03,2013-05-27 12:48:00,
2013-05-27 07:53:00,81.9,80.6,29.94,North,-999,0.0,0.0,96,0.00,,,-99.99,FreeWX 2.03,2013-05-27 12:53:00,
2013-05-27 07:58:00,81.9,80.6,29.94,North,-999,0.0,0.0,96,0.00,,,-99.99,FreeWX 2.03,2013-05-27 12:58:00,
2013-05-27 08:03:00,81.9,80.6,29.94,North,-999,0.0,0.0,96,0.00,,,-99.99,FreeWX 2.03,2013-05-27 13:03:00,
2013-05-27 08:08:00,82.0,80.8,29.94,North,-999,0.0,0.0,96,0.00,,,-99.99,FreeWX 2.03,2013-05-27 13:08:00,
2013-05-27 08:13:00,82.2,81.0,29.94,North,-999,0.0,0.0,96,0.00,,,-99.99,FreeWX 2.03,2013-05-27 13:13:00,
2013-05-27 08:18:00,82.2,81.0,29.94,North,-999,0.0,0.0,96,0.00,,,-99.99,FreeWX 2.03,2013-05-27 13:18:00,
2013-05-27 08:23:00,82.4,80.8,29.94,North,-999,0.0,0.0,95,0.00,,,-99.99,FreeWX 2.03,2013-05-27 13:23:00,
2013-05-27 08:28:00,82.4,80.8,29.94,North,-999,0.0,0.0,95,0.00,,,-99.99,FreeWX 2.03,2013-05-27 13:28:00,
2013-05-27 08:33:00,82.4,80.8,29.94,North,-999,0.0,0.0,95,0.00,,,-99.99,FreeWX 2.03,2013-05-27 13:33:00,
2013-05-27 08:38:00,82.6,81.0,29.94,North,-999,0.0,0.0,95,0.00,,,-99.99,FreeWX 2.03,2013-05-27 13:38:00,
2013-05-27 08:43:00,82.6,81.0,29.94,North,-999,0.0,0.0,95,0.00,,,-99.99,FreeWX 2.03,2013-05-27 13:43:00,
2013-05-27 08:48:00,82.8,81.1,29.94,North,-999,0.0,0.0,95,0.00,,,-99.99,FreeWX 2.03,2013-05-27 13:48:00,
2013-05-27 08:53:00,82.8,80.8,29.94,North,-999,0.0,0.0,94,0.00,,,-99.99,FreeWX 2.03,2013-05-27 13:53:00,
2013-05-27 08:58:00,82.9,81.0,29.94,North,-999,0.0,0.0,94,0.00,,,-99.99,FreeWX 2.03,2013-05-27 13:58:00,
2013-05-27 09:03:00,83.1,81.1,29.94,North,-999,0.0,0.0,94,0.00,,,-99.99,FreeWX 2.03,2013-05-27 14:03:00,
2013-05-27 09:08:00,83.1,81.1,29.94,North,-999,0.0,0.0,94,0.00,,,-99.99,FreeWX 2.03,2013-05-27 14:08:00,
2013-05-27 09:13:00,83.1,81.0,29.97,North,-999,0.0,0.0,93,0.00,,,-99.99,FreeWX 2.03,2013-05-27 14:13:00,
2013-05-27 09:18:00,83.1,81.0,29.97,North,-999,0.0,0.0,93,0.00,,,-99.99,FreeWX 2.03,2013-05-27 14:18:00,
2013-05-27 09:23:00,83.5,81.3,29.97,North,-999,0.0,0.0,93,0.00,,,-99.99,FreeWX 2.03,2013-05-27 14:23:00,
2013-05-27 09:28:00,83.7,81.3,29.97,North,-999,0.0,0.0,93,0.00,,,-99.99,FreeWX 2.03,2013-05-27 14:28:00,
2013-05-27 09:33:00,83.8,81.3,29.97,North,-999,0.0,0.0,92,0.00,,,-99.99,FreeWX 2.03,2013-05-27 14:33:00,
2013-05-27 09:38:00,83.8,81.3,29.97,North,-999,0.0,0.0,92,0.00,,,-99.99,FreeWX 2.03,2013-05-27 14:38:00,
2013-05-27 09:43:00,83.8,81.3,29.97,North,-999,0.0,0.0,92,0.00,,,-99.99,FreeWX 2.03,2013-05-27 14:43:00,
2013-05-27 09:48:00,84.0,81.1,29.97,North,-999,0.0,0.0,91,0.00,,,-99.99,FreeWX 2.03,2013-05-27 14:48:00,
2013-05-27 09:53:00,84.6,81.7,29.97,North,-999,0.0,0.0,91,0.00,,,-99.99,FreeWX 2.03,2013-05-27 14:53:00,
2013-05-27 09:58:00,84.6,81.3,29.97,North,-999,0.0,0.0,90,0.00,,,-99.99,FreeWX 2.03,2013-05-27 14:58:00,
2013-05-27 10:03:00,84.6,81.3,29.97,North,-999,0.0,0.0,90,0.00,,,-99.99,FreeWX 2.03,2013-05-27 15:03:00,
2013-05-27 10:08:00,84.4,80.8,29.97,North,-999,0.0,0.0,89,0.00,,,-99.99,FreeWX 2.03,2013-05-27 15:08:00,
2013-05-27 10:13:00,84.6,81.3,29.97,North,-999,0.0,0.0,90,0.00,,,-99.99,FreeWX 2.03,2013-05-27 15:13:00,
2013-05-27 10:18:00,84.9,81.3,29.97,North,-999,0.0,0.0,89,0.00,,,-99.99,FreeWX 2.03,2013-05-27 15:18:00,
2013-05-27 10:23:00,85.3,81.7,29.97,North,-999,0.0,0.0,89,0.00,,,-99.99,FreeWX 2.03,2013-05-27 15:23:00,
2013-05-27 10:28:00,85.5,81.9,29.97,North,-999,0.0,0.0,89,0.00,,,-99.99,FreeWX 2.03,2013-05-27 15:28:00,
2013-05-27 10:33:00,85.3,81.3,29.97,North,-999,0.0,0.0,88,0.00,,,-99.99,FreeWX 2.03,2013-05-27 15:33:00,
2013-05-27 10:38:00,85.3,81.3,29.97,North,-999,0.0,0.0,88,0.00,,,-99.99,FreeWX 2.03,2013-05-27 15:38:00,
2013-05-27 10:43:00,85.5,81.5,29.97,North,-999,0.0,0.0,88,0.00,,,-99.99,FreeWX 2.03,2013-05-27 15:43:00,
2013-05-27 10:48:00,86.2,81.9,29.97,North,-999,0.0,0.0,87,0.00,,,-99.99,FreeWX 2.03,2013-05-27 15:48:00,
2013-05-27 10:53:00,86.9,82.2,29.97,North,-999,0.0,0.0,86,0.00,,,-99.99,FreeWX 2.03,2013-05-27 15:53:00,
2013-05-27 10:58:00,87.3,81.9,29.97,North,-999,0.0,0.0,84,0.00,,,-99.99,FreeWX 2.03,2013-05-27 15:58:00,
2013-05-27 11:03:00,87.8,81.7,29.97,North,-999,0.0,0.0,82,0.00,,,-99.99,FreeWX 2.03,2013-05-27 16:03:00,
2013-05-27 11:08:00,88.2,81.1,29.97,North,-999,0.0,0.0,80,0.00,,,-99.99,FreeWX 2.03,2013-05-27 16:08:00,
2013-05-27 11:13:00,88.2,80.4,29.97,North,-999,0.0,0.0,78,0.00,,,-99.99,FreeWX 2.03,2013-05-27 16:13:00,
2013-05-27 11:18:00,88.7,81.0,29.97,North,-999,0.0,0.0,78,0.00,,,-99.99,FreeWX 2.03,2013-05-27 16:18:00,
2013-05-27 11:23:00,88.9,80.2,29.97,North,-999,0.0,0.0,76,0.00,,,-99.99,FreeWX 2.03,2013-05-27 16:23:00,
2013-05-27 11:28:00,88.9,80.2,29.97,North,-999,0.0,0.0,76,0.00,,,-99.99,FreeWX 2.03,2013-05-27 16:28:00,
2013-05-27 11:33:00,89.1,80.4,29.97,North,-999,0.0,0.0,76,0.00,,,-99.99,FreeWX 2.03,2013-05-27 16:33:00,
2013-05-27 11:38:00,89.2,80.2,29.97,North,-999,0.0,0.0,75,0.00,,,-99.99,FreeWX 2.03,2013-05-27 16:38:00,
2013-05-27 11:43:00,89.4,80.1,29.97,North,-999,0.0,0.0,74,0.00,,,-99.99,FreeWX 2.03,2013-05-27 16:43:00,
2013-05-27 11:48:00,89.6,79.7,29.97,North,-999,0.0,0.0,73,0.00,,,-99.99,FreeWX 2.03,2013-05-27 16:48:00,
2013-05-27 11:53:00,89.8,79.9,29.97,North,-999,0.0,0.0,73,0.00,,,-99.99,FreeWX 2.03,2013-05-27 16:53:00,
2013-05-27 11:58:00,89.8,79.9,29.97,North,-999,0.0,0.0,73,0.00,,,-99.99,FreeWX 2.03,2013-05-27 16:58:00,
2013-05-27 12:03:00,89.6,79.3,29.97,North,-999,0.0,0.0,72,0.00,,,-99.99,FreeWX 2.03,2013-05-27 17:03:00,
2013-05-27 12:08:00,89.4,79.5,29.97,North,-999,0.0,0.0,73,0.00,,,-99.99,FreeWX 2.03,2013-05-27 17:08:00,
2013-05-27 12:13:00,89.4,79.5,29.97,North,-999,0.0,0.0,73,0.00,,,-99.99,FreeWX 2.03,2013-05-27 17:13:00,
2013-05-27 12:18:00,89.6,79.7,29.97,North,-999,0.0,0.0,73,0.00,,,-99.99,FreeWX 2.03,2013-05-27 17:18:00,
2013-05-27 12:23:00,89.8,80.4,29.97,North,-999,0.0,0.0,74,0.00,,,-99.99,FreeWX 2.03,2013-05-27 17:23:00,
2013-05-27 12:28:00,89.6,79.7,29.97,North,-999,0.0,0.0,73,0.00,,,-99.99,FreeWX 2.03,2013-05-27 17:28:00,
2013-05-27 12:33:00,89.6,79.7,29.97,North,-999,0.0,0.0,73,0.00,,,-99.99,FreeWX 2.03,2013-05-27 17:33:00,
2013-05-27 12:38:00,89.6,79.7,29.97,North,-999,0.0,0.0,73,0.00,,,-99.99,FreeWX 2.03,2013-05-27 17:38:00,
2013-05-27 12:43:00,89.4,79.5,29.97,North,-999,0.0,0.0,73,0.00,,,-99.99,FreeWX 2.03,2013-05-27 17:43:00,
2013-05-27 12:48:00,89.4,79.5,29.97,North,-999,0.0,0.0,73,0.00,,,-99.99,FreeWX 2.03,2013-05-27 17:48:00,
2013-05-27 12:53:00,89.2,79.3,29.97,North,-999,0.0,0.0,73,0.00,,,-99.99,FreeWX 2.03,2013-05-27 17:53:00,
2013-05-27 12:58:00,89.1,79.2,29.97,North,-999,0.0,0.0,73,0.00,,,-99.99,FreeWX 2.03,2013-05-27 17:58:00,
2013-05-27 13:03:00,88.9,79.2,29.97,North,-999,0.0,0.0,73,0.00,,,-99.99,FreeWX 2.03,2013-05-27 18:03:00,
2013-05-27 13:08:00,88.9,79.5,29.97,North,-999,0.0,0.0,74,0.00,,,-99.99,FreeWX 2.03,2013-05-27 18:08:00,
2013-05-27 13:13:00,88.7,79.3,29.94,North,-999,0.0,0.0,74,0.00,,,-99.99,FreeWX 2.03,2013-05-27 18:13:00,
2013-05-27 13:18:00,88.7,79.3,29.94,North,-999,0.0,0.0,74,0.00,,,-99.99,FreeWX 2.03,2013-05-27 18:18:00,
2013-05-27 13:23:00,88.7,79.3,29.94,North,-999,0.0,0.0,74,0.00,,,-99.99,FreeWX 2.03,2013-05-27 18:23:00,
2013-05-27 13:28:00,88.9,79.5,29.94,North,-999,0.0,0.0,74,0.00,,,-99.99,FreeWX 2.03,2013-05-27 18:28:00,
2013-05-27 13:33:00,88.7,79.0,29.94,North,-999,0.0,0.0,73,0.00,,,-99.99,FreeWX 2.03,2013-05-27 18:33:00,
2013-05-27 13:38:00,88.9,79.2,29.94,North,-999,0.0,0.0,73,0.00,,,-99.99,FreeWX 2.03,2013-05-27 18:38:00,
2013-05-27 13:43:00,88.9,78.6,29.94,North,-999,0.0,0.0,72,0.00,,,-99.99,FreeWX 2.03,2013-05-27 18:43:00,
2013-05-27 13:48:00,88.7,78.4,29.94,North,-999,0.0,0.0,72,0.00,,,-99.99,FreeWX 2.03,2013-05-27 18:48:00,
2013-05-27 13:53:00,88.9,78.6,29.94,North,-999,0.0,0.0,72,0.00,,,-99.99,FreeWX 2.03,2013-05-27 18:53:00,
2013-05-27 13:58:00,88.7,79.0,29.94,North,-999,0.0,0.0,73,0.00,,,-99.99,FreeWX 2.03,2013-05-27 18:58:00,
2013-05-27 14:03:00,88.5,78.8,29.94,North,-999,0.0,0.0,73,0.00,,,-99.99,FreeWX 2.03,2013-05-27 19:03:00,
2013-05-27 14:08:00,88.7,79.0,29.94,North,-999,0.0,0.0,73,0.00,,,-99.99,FreeWX 2.03,2013-05-27 19:08:00,
2013-05-27 14:13:00,88.5,78.8,29.94,North,-999,0.0,0.0,73,0.00,,,-99.99,FreeWX 2.03,2013-05-27 19:13:00,
2013-05-27 14:18:00,88.9,79.5,29.94,North,-999,0.0,0.0,74,0.00,,,-99.99,FreeWX 2.03,2013-05-27 19:18:00,
2013-05-27 14:23:00,89.1,79.2,29.94,North,-999,0.0,0.0,73,0.00,,,-99.99,FreeWX 2.03,2013-05-27 19:23:00,
2013-05-27 14:28:00,88.7,79.0,29.94,North,-999,0.0,0.0,73,0.00,,,-99.99,FreeWX 2.03,2013-05-27 19:28:00,
2013-05-27 14:33:00,88.5,78.8,29.94,North,-999,0.0,0.0,73,0.00,,,-99.99,FreeWX 2.03,2013-05-27 19:33:00,
2013-05-27 14:38:00,88.3,78.6,29.94,North,-999,0.0,0.0,73,0.00,,,-99.99,FreeWX 2.03,2013-05-27 19:38:00,
2013-05-27 14:43:00,88.3,79.0,29.91,North,-999,0.0,0.0,74,0.00,,,-99.99,FreeWX 2.03,2013-05-27 19:43:00,
2013-05-27 14:48:00,88.7,79.3,29.91,North,-999,0.0,0.0,74,0.00,,,-99.99,FreeWX 2.03,2013-05-27 19:48:00,
2013-05-27 14:53:00,89.1,79.2,29.91,North,-999,0.0,0.0,73,0.00,,,-99.99,FreeWX 2.03,2013-05-27 19:53:00,
2013-05-27 14:58:00,88.9,79.2,29.91,North,-999,0.0,0.0,73,0.00,,,-99.99,FreeWX 2.03,2013-05-27 19:58:00,
2013-05-27 15:03:00,88.5,78.3,29.91,North,-999,0.0,0.0,72,0.00,,,-99.99,FreeWX 2.03,2013-05-27 20:03:00,
2013-05-27 15:08:00,88.3,78.6,29.91,North,-999,0.0,0.0,73,0.00,,,-99.99,FreeWX 2.03,2013-05-27 20:08:00,
2013-05-27 15:13:00,88.3,78.6,29.91,North,-999,0.0,0.0,73,0.00,,,-99.99,FreeWX 2.03,2013-05-27 20:13:00,
2013-05-27 15:18:00,88.7,79.0,29.91,North,-999,0.0,0.0,73,0.00,,,-99.99,FreeWX 2.03,2013-05-27 20:18:00,
2013-05-27 15:23:00,88.5,78.8,29.91,North,-999,0.0,0.0,73,0.00,,,-99.99,FreeWX 2.03,2013-05-27 20:23:00,
2013-05-27 15:28:00,88.2,78.4,29.91,North,-999,0.0,0.0,73,0.00,,,-99.99,FreeWX 2.03,2013-05-27 20:28:00,
2013-05-27 15:33:00,88.0,78.6,29.91,North,-999,0.0,0.0,74,0.00,,,-99.99,FreeWX 2.03,2013-05-27 20:33:00,
2013-05-27 15:38:00,88.2,78.8,29.91,North,-999,0.0,0.0,74,0.00,,,-99.99,FreeWX 2.03,2013-05-27 20:38:00,
2013-05-27 15:43:00,88.5,78.8,29.91,North,-999,0.0,0.0,73,0.00,,,-99.99,FreeWX 2.03,2013-05-27 20:43:00,
2013-05-27 15:48:00,88.3,78.1,29.91,North,-999,0.0,0.0,72,0.00,,,-99.99,FreeWX 2.03,2013-05-27 20:48:00,
2013-05-27 15:53:00,88.2,77.9,29.91,North,-999,0.0,0.0,72,0.00,,,-99.99,FreeWX 2.03,2013-05-27 20:53:00,
2013-05-27 15:58:00,88.2,78.4,29.91,North,-999,0.0,0.0,73,0.00,,,-99.99,FreeWX 2.03,2013-05-27 20:58:00,
2013-05-27 16:03:00,88.2,78.4,29.91,North,-999,0.0,0.0,73,0.00,,,-99.99,FreeWX 2.03,2013-05-27 21:03:00,
2013-05-27 16:08:00,88.0,78.3,29.91,North,-999,0.0,0.0,73,0.00,,,-99.99,FreeWX 2.03,2013-05-27 21:08:00,
2013-05-27 16:13:00,88.0,78.3,29.88,North,-999,0.0,0.0,73,0.00,,,-99.99,FreeWX 2.03,2013-05-27 21:13:00,
2013-05-27 16:18:00,88.2,78.8,29.88,North,-999,0.0,0.0,74,0.00,,,-99.99,FreeWX 2.03,2013-05-27 21:18:00,
2013-05-27 16:23:00,88.0,78.3,29.88,North,-999,0.0,0.0,73,0.00,,,-99.99,FreeWX 2.03,2013-05-27 21:23:00,
2013-05-27 16:28:00,87.6,77.9,29.88,North,-999,0.0,0.0,73,0.00,,,-99.99,FreeWX 2.03,2013-05-27 21:28:00,
2013-05-27 16:33:00,87.8,78.4,29.88,North,-999,0.0,0.0,74,0.00,,,-99.99,FreeWX 2.03,2013-05-27 21:33:00,
2013-05-27 16:38:00,88.5,79.5,29.88,North,-999,0.0,0.0,75,0.00,,,-99.99,FreeWX 2.03,2013-05-27 21:38:00,
2013-05-27 16:43:00,88.5,78.8,29.88,North,-999,0.0,0.0,73,0.00,,,-99.99,FreeWX 2.03,2013-05-27 21:43:00,
2013-05-27 16:48:00,88.2,78.4,29.88,North,-999,0.0,0.0,73,0.00,,,-99.99,FreeWX 2.03,2013-05-27 21:48:00,
2013-05-27 16:53:00,87.6,78.3,29.88,North,-999,0.0,0.0,74,0.00,,,-99.99,FreeWX 2.03,2013-05-27 21:53:00,
2013-05-27 16:58:00,87.6,78.6,29.88,North,-999,0.0,0.0,75,0.00,,,-99.99,FreeWX 2.03,2013-05-27 21:58:00,
2013-05-27 17:03:00,87.8,78.8,29.88,North,-999,0.0,0.0,75,0.00,,,-99.99,FreeWX 2.03,2013-05-27 22:03:00,
2013-05-27 17:08:00,87.6,78.6,29.88,North,-999,0.0,0.0,75,0.00,,,-99.99,FreeWX 2.03,2013-05-27 22:08:00,
2013-05-27 17:13:00,87.4,79.0,29.88,North,-999,0.0,0.0,76,0.00,,,-99.99,FreeWX 2.03,2013-05-27 22:13:00,
2013-05-27 17:18:00,87.1,78.6,29.88,North,-999,0.0,0.0,76,0.00,,,-99.99,FreeWX 2.03,2013-05-27 22:18:00,
2013-05-27 17:23:00,87.1,79.0,29.88,North,-999,0.0,0.0,77,0.00,,,-99.99,FreeWX 2.03,2013-05-27 22:23:00,
2013-05-27 17:28:00,87.3,79.2,29.88,North,-999,0.0,0.0,77,0.00,,,-99.99,FreeWX 2.03,2013-05-27 22:28:00,
2013-05-27 17:34:00,87.3,79.2,29.88,North,-999,0.0,0.0,77,0.00,,,-99.99,FreeWX 2.03,2013-05-27 22:34:00,
2013-05-27 17:39:00,87.3,79.2,29.88,North,-999,0.0,0.0,77,0.00,,,-99.99,FreeWX 2.03,2013-05-27 22:39:00,
2013-05-27 17:44:00,87.3,79.2,29.88,North,-999,0.0,0.0,77,0.00,,,-99.99,FreeWX 2.03,2013-05-27 22:44:00,
2013-05-27 17:49:00,87.3,79.2,29.88,North,-999,0.0,0.0,77,0.00,,,-99.99,FreeWX 2.03,2013-05-27 22:49:00,
2013-05-27 17:54:00,87.1,79.0,29.88,North,-999,0.0,0.0,77,0.00,,,-99.99,FreeWX 2.03,2013-05-27 22:54:00,
2013-05-27 17:59:00,86.9,78.8,29.85,North,-999,0.0,0.0,77,0.00,,,-99.99,FreeWX 2.03,2013-05-27 22:59:00,
2013-05-27 18:04:00,86.9,78.8,29.85,North,-999,0.0,0.0,77,0.00,,,-99.99,FreeWX 2.03,2013-05-27 23:04:00,
2013-05-27 18:09:00,86.7,78.6,29.85,North,-999,0.0,0.0,77,0.00,,,-99.99,FreeWX 2.03,2013-05-27 23:09:00,
2013-05-27 18:14:00,86.5,78.8,29.85,North,-999,0.0,0.0,78,0.00,,,-99.99,FreeWX 2.03,2013-05-27 23:14:00,
2013-05-27 18:19:00,86.4,78.6,29.85,North,-999,0.0,0.0,78,0.00,,,-99.99,FreeWX 2.03,2013-05-27 23:19:00,
2013-05-27 18:24:00,86.2,78.4,29.85,North,-999,0.0,0.0,78,0.00,,,-99.99,FreeWX 2.03,2013-05-27 23:24:00,
2013-05-27 18:29:00,86.0,78.6,29.85,North,-999,0.0,0.0,79,0.00,,,-99.99,FreeWX 2.03,2013-05-27 23:29:00,
2013-05-27 18:34:00,85.6,78.4,29.85,North,-999,0.0,0.0,79,0.00,,,-99.99,FreeWX 2.03,2013-05-27 23:34:00,
2013-05-27 18:39:00,85.5,78.6,29.85,North,-999,0.0,0.0,80,0.00,,,-99.99,FreeWX 2.03,2013-05-27 23:39:00,
2013-05-27 18:44:00,85.5,79.0,29.85,North,-999,0.0,0.0,81,0.00,,,-99.99,FreeWX 2.03,2013-05-27 23:44:00,
2013-05-27 18:49:00,85.5,79.0,29.85,North,-999,0.0,0.0,81,0.00,,,-99.99,FreeWX 2.03,2013-05-27 23:49:00,
2013-05-27 18:54:00,85.3,78.8,29.85,North,-999,0.0,0.0,81,0.00,,,-99.99,FreeWX 2.03,2013-05-27 23:54:00,
2013-05-27 18:59:00,85.1,79.0,29.85,North,-999,0.0,0.0,82,0.00,,,-99.99,FreeWX 2.03,2013-05-27 23:59:00,
2013-05-27 19:04:00,84.9,78.8,29.85,North,-999,0.0,0.0,82,0.00,,,-99.99,FreeWX 2.03,2013-05-28 00:04:00,
2013-05-27 19:09:00,84.9,78.8,29.85,North,-999,0.0,0.0,82,0.00,,,-99.99,FreeWX 2.03,2013-05-28 00:09:00,
2013-05-27 19:14:00,84.6,78.8,29.85,North,-999,0.0,0.0,83,0.00,,,-99.99,FreeWX 2.03,2013-05-28 00:14:00,
2013-05-27 19:19:00,84.4,78.6,29.85,North,-999,0.0,0.0,83,0.00,,,-99.99,FreeWX 2.03,2013-05-28 00:19:00,
2013-05-27 19:24:00,84.4,79.0,29.85,North,-999,0.0,0.0,84,0.00,,,-99.99,FreeWX 2.03,2013-05-28 00:24:00,
2013-05-27 19:29:00,84.2,78.8,29.85,North,-999,0.0,0.0,84,0.00,,,-99.99,FreeWX 2.03,2013-05-28 00:29:00,
2013-05-27 19:34:00,83.8,78.8,29.85,North,-999,0.0,0.0,85,0.00,,,-99.99,FreeWX 2.03,2013-05-28 00:34:00,
2013-05-27 19:39:00,83.8,78.8,29.85,North,-999,0.0,0.0,85,0.00,,,-99.99,FreeWX 2.03,2013-05-28 00:39:00,
2013-05-27 19:44:00,83.8,79.2,29.85,North,-999,0.0,0.0,86,0.00,,,-99.99,FreeWX 2.03,2013-05-28 00:44:00,
2013-05-27 19:49:00,83.7,79.0,29.85,North,-999,0.0,0.0,86,0.00,,,-99.99,FreeWX 2.03,2013-05-28 00:49:00,
2013-05-27 19:54:00,83.3,78.6,29.85,North,-999,0.0,0.0,86,0.00,,,-99.99,FreeWX 2.03,2013-05-28 00:54:00,
2013-05-27 19:59:00,83.3,78.6,29.85,North,-999,0.0,0.0,86,0.00,,,-99.99,FreeWX 2.03,2013-05-28 00:59:00,
2013-05-27 20:04:00,83.3,79.0,29.85,North,-999,0.0,0.0,87,0.00,,,-99.99,FreeWX 2.03,2013-05-28 01:04:00,
2013-05-27 20:09:00,83.3,78.6,29.85,North,-999,0.0,0.0,86,0.00,,,-99.99,FreeWX 2.03,2013-05-28 01:09:00,
2013-05-27 20:14:00,82.9,78.6,29.85,North,-999,0.0,0.0,87,0.00,,,-99.99,FreeWX 2.03,2013-05-28 01:14:00,
2013-05-27 20:19:00,82.8,78.4,29.85,North,-999,0.0,0.0,87,0.00,,,-99.99,FreeWX 2.03,2013-05-28 01:19:00,
2013-05-27 20:24:00,82.8,78.4,29.85,North,-999,0.0,0.0,87,0.00,,,-99.99,FreeWX 2.03,2013-05-28 01:24:00,
2013-05-27 20:29:00,82.9,78.6,29.85,North,-999,0.0,0.0,87,0.00,,,-99.99,FreeWX 2.03,2013-05-28 01:29:00,
2013-05-27 20:34:00,82.9,78.6,29.85,North,-999,0.0,0.0,87,0.00,,,-99.99,FreeWX 2.03,2013-05-28 01:34:00,
2013-05-27 20:39:00,82.8,78.8,29.85,North,-999,0.0,0.0,88,0.00,,,-99.99,FreeWX 2.03,2013-05-28 01:39:00,
2013-05-27 20:44:00,82.6,78.6,29.85,North,-999,0.0,0.0,88,0.00,,,-99.99,FreeWX 2.03,2013-05-28 01:44:00,
2013-05-27 20:49:00,82.6,78.6,29.85,North,-999,0.0,0.0,88,0.00,,,-99.99,FreeWX 2.03,2013-05-28 01:49:00,
2013-05-27 20:54:00,82.4,78.4,29.85,North,-999,0.0,0.0,88,0.00,,,-99.99,FreeWX 2.03,2013-05-28 01:54:00,
2013-05-27 20:59:00,82.4,78.4,29.85,North,-999,0.0,0.0,88,0.00,,,-99.99,FreeWX 2.03,2013-05-28 01:59:00,
2013-05-27 21:04:00,82.4,78.8,29.85,North,-999,0.0,0.0,89,0.00,,,-99.99,FreeWX 2.03,2013-05-28 02:04:00,
2013-05-27 21:09:00,82.4,78.8,29.85,North,-999,0.0,0.0,89,0.00,,,-99.99,FreeWX 2.03,2013-05-28 02:09:00,
2013-05-27 21:14:00,82.6,79.0,29.85,North,-999,0.0,0.0,89,0.00,,,-99.99,FreeWX 2.03,2013-05-28 02:14:00,
2013-05-27 21:19:00,82.4,78.8,29.85,North,-999,0.0,0.0,89,0.00,,,-99.99,FreeWX 2.03,2013-05-28 02:19:00,
2013-05-27 21:24:00,82.2,78.6,29.85,North,-999,0.0,0.0,89,0.00,,,-99.99,FreeWX 2.03,2013-05-28 02:24:00,
2013-05-27 21:29:00,82.2,79.0,29.85,North,-999,0.0,0.0,90,0.00,,,-99.99,FreeWX 2.03,2013-05-28 02:29:00,
2013-05-27 21:34:00,82.4,79.2,29.85,North,-999,0.0,0.0,90,0.00,,,-99.99,FreeWX 2.03,2013-05-28 02:34:00,
2013-05-27 21:39:00,82.4,79.2,29.85,North,-999,0.0,0.0,90,0.00,,,-99.99,FreeWX 2.03,2013-05-28 02:39:00,
2013-05-27 21:44:00,82.4,78.8,29.88,North,-999,0.0,0.0,89,0.00,,,-99.99,FreeWX 2.03,2013-05-28 02:44:00,
2013-05-27 21:49:00,82.2,78.6,29.88,North,-999,0.0,0.0,89,0.00,,,-99.99,FreeWX 2.03,2013-05-28 02:49:00,
2013-05-27 21:54:00,82.2,79.0,29.88,North,-999,0.0,0.0,90,0.00,,,-99.99,FreeWX 2.03,2013-05-28 02:54:00,
2013-05-27 21:59:00,82.2,79.0,29.88,North,-999,0.0,0.0,90,0.00,,,-99.99,FreeWX 2.03,2013-05-28 02:59:00,
2013-05-27 22:04:00,82.2,79.0,29.88,North,-999,0.0,0.0,90,0.00,,,-99.99,FreeWX 2.03,2013-05-28 03:04:00,
2013-05-27 22:09:00,82.4,79.2,29.88,North,-999,0.0,0.0,90,0.00,,,-99.99,FreeWX 2.03,2013-05-28 03:09:00,
2013-05-27 22:14:00,82.4,79.2,29.88,North,-999,0.0,0.0,90,0.00,,,-99.99,FreeWX 2.03,2013-05-28 03:14:00,
2013-05-27 22:19:00,82.4,79.2,29.88,North,-999,0.0,0.0,90,0.00,,,-99.99,FreeWX 2.03,2013-05-28 03:19:00,
2013-05-27 22:24:00,82.4,79.2,29.88,North,-999,0.0,0.0,90,0.00,,,-99.99,FreeWX 2.03,2013-05-28 03:24:00,
2013-05-27 22:29:00,82.2,79.0,29.88,North,-999,0.0,0.0,90,0.00,,,-99.99,FreeWX 2.03,2013-05-28 03:29:00,
2013-05-27 22:34:00,82.2,79.3,29.88,North,-999,0.0,0.0,91,0.00,,,-99.99,FreeWX 2.03,2013-05-28 03:34:00,
2013-05-27 22:39:00,82.0,79.2,29.88,North,-999,0.0,0.0,91,0.00,,,-99.99,FreeWX 2.03,2013-05-28 03:39:00,
2013-05-27 22:44:00,82.0,79.2,29.88,North,-999,0.0,0.0,91,0.00,,,-99.99,FreeWX 2.03,2013-05-28 03:44:00,
2013-05-27 22:49:00,82.2,79.3,29.88,North,-999,0.0,0.0,91,0.00,,,-99.99,FreeWX 2.03,2013-05-28 03:49:00,
2013-05-27 22:54:00,82.2,79.3,29.88,North,-999,0.0,0.0,91,0.00,,,-99.99,FreeWX 2.03,2013-05-28 03:54:00,
2013-05-27 22:59:00,82.0,79.2,29.88,North,-999,0.0,0.0,91,0.00,,,-99.99,FreeWX 2.03,2013-05-28 03:59:00,
2013-05-27 23:04:00,82.0,79.2,29.88,North,-999,0.0,0.0,91,0.00,,,-99.99,FreeWX 2.03,2013-05-28 04:04:00,
2013-05-27 23:09:00,82.0,78.8,29.88,North,-999,0.0,0.0,90,0.00,,,-99.99,FreeWX 2.03,2013-05-28 04:09:00,
2013-05-27 23:14:00,82.0,78.8,29.88,North,-999,0.0,0.0,90,0.00,,,-99.99,FreeWX 2.03,2013-05-28 04:14:00,
2013-05-27 23:19:00,81.9,79.0,29.88,North,-999,0.0,0.0,91,0.00,,,-99.99,FreeWX 2.03,2013-05-28 04:19:00,
2013-05-27 23:24:00,81.9,79.0,29.88,North,-999,0.0,0.0,91,0.00,,,-99.99,FreeWX 2.03,2013-05-28 04:24:00,
2013-05-27 23:29:00,82.2,79.3,29.91,North,-999,0.0,0.0,91,0.00,,,-99.99,FreeWX 2.03,2013-05-28 04:29:00,
2013-05-27 23:34:00,82.2,79.3,29.91,North,-999,0.0,0.0,91,0.00,,,-99.99,FreeWX 2.03,2013-05-28 04:34:00,
2013-05-27 23:39:00,82.0,79.2,29.91,North,-999,0.0,0.0,91,0.00,,,-99.99,FreeWX 2.03,2013-05-28 04:39:00,
2013-05-27 23:44:00,81.9,79.0,29.88,North,-999,0.0,0.0,91,0.00,,,-99.99,FreeWX 2.03,2013-05-28 04:44:00,
2013-05-27 23:49:00,81.9,79.0,29.88,North,-999,0.0,0.0,91,0.00,,,-99.99,FreeWX 2.03,2013-05-28 04:49:00,
2013-05-27 23:54:00,81.9,79.3,29.88,North,-999,0.0,0.0,92,0.00,,,-99.99,FreeWX 2.03,2013-05-28 04:54:00,
2013-05-27 23:59:00,82.0,79.5,29.88,North,-999,0.0,0.0,92,0.00,,,-99.99,FreeWX 2.03,2013-05-28 04:59:00,